Location: *
(58.4167°N, 22.5000°E)
Time: 14:38:50
(UTC+00:00)

Cosmos 2056 Rocket - Pass Details

Date: 22 September 2019
Orbit: 743 x 800 km, 74.0° (Epoch: 21 October)

Event Time Altitude Azimuth Distance (km) Brightness Sun altitude
Rises 17:28:23 0° 179° (S) 3,300 6.6 -8.3°
Reaches altitude 10° 17:30:56 10° 171° (S) 2,372 5.8 -8.6°
Maximum altitude 17:35:50 37° 106° (ESE) 1,234 4.1 -9.3°
Drops below altitude 10° 17:40:44 10° 41° (NE) 2,367 5.8 -9.9°
Sets 17:43:16 0° 33° (NNE) 3,293 6.6 -10.2°
